Weather History for Maun, Botswana

Change the Weather History Date:

Wednesday, September 19, 2012

  Actual Average Record
Temperature  
Mean Temperature 80 °F -  
Max Temperature 93 °F 91 °F 96 °F (2013)
Min Temperature 68 °F 64 °F 50 °F (2006)
Cooling Degree Days 16    
Growing Degree Days 30 (Base 50)    
Moisture  
Dew Point 50 °F    
Average Humidity 38    
Maximum Humidity 59    
Minimum Humidity 16    
Precipitation  
Precipitation 0.00 in - - ()
Sea Level Pressure  
Sea Level Pressure 30.05 in    
Wind  
Wind Speed 5 mph ()    
Max Wind Speed 13 mph    
Max Gust Speed -    
Visibility 6.0 miles    
Events      
Averages and records for this station are not official NWS values.
T = Trace of Precipitation, MM = Missing Value Source: Averaged Metar Reports

Daily Weather History Graph

Daily Weather History Graph

Search for Another Location

Airport:

Trip Planner

Search our weather history database for the weather conditions in past years. The results will help you decide how hot, cold, wet, or windy it might be!

Date:

Astronomy

Sep. 19, 2012 Rise Set
Actual Time 6:18 AM CAT 6:21 PM CAT
Civil Twilight 5:56 AM CAT 6:43 PM CAT
Nautical Twilight 5:30 AM CAT 7:09 PM CAT
Astronomical Twilight 5:05 AM CAT 7:34 PM CAT
Moon 8:34 AM CAT (9/19) 9:55 PM CAT (9/19)
Length of Visible Light 12h 47m
Length of Day
12h 03m
Waxing Crescent, 14% of the Moon is Illuminated
Sep 19
Waxing Crescent
Sep 22
First Quarter
Sep 30
Full
Oct 8
Last Quarter
Oct 15
New

Hourly Weather History & Observations

Time (CAT) Temp. Heat Index Dew Point Humidity Pressure Visibility Wind Dir Wind Speed Gust Speed Precip Events Conditions
12:00 AM 69.8 °F - 44.6 °F 40% 30.06 in - ESE 9.2 mph - N/A   Clear
3:00 AM 62.6 °F - 44.6 °F 52% 30.06 in - North 5.8 mph - N/A   Clear
4:00 AM 59.0 °F - 44.6 °F 59% 30.06 in - Calm Calm - N/A   Clear
5:00 AM 59.0 °F - 44.6 °F 59% 30.09 in - Calm Calm - N/A   Clear
6:00 AM 59.0 °F - 42.8 °F 55% 30.09 in - Variable 2.3 mph - N/A   Clear
7:00 AM 60.8 °F - 46.4 °F 59% 30.12 in - ENE 4.6 mph - N/A   Clear
8:00 AM 68 °F - 47 °F 36%  in 6 mi ENE 4.6 mph - -  
8:00 AM 68.0 °F - 46.4 °F 46% 30.12 in - ENE 4.6 mph - N/A   Clear
9:00 AM 77.0 °F - 48.2 °F 36% 30.12 in - East 12.7 mph - N/A   Clear
10:00 AM 82.4 °F - 46.4 °F 28% 30.12 in - NNE 9.2 mph - N/A   Clear
11:00 AM 84.2 °F - 51.8 °F 33% 30.12 in - NE 9.2 mph - N/A   Clear
12:00 PM 87.8 °F - 51.8 °F 29% 30.06 in - NNE 9.2 mph - N/A   Clear
1:00 PM 89.6 °F 87.3 °F 53.6 °F 29% 30.04 in - SSW 5.8 mph - N/A   Clear
2:00 PM 91 °F - 51 °F 16%  in 6 mi 8.1 mph - -  
2:00 PM 91.4 °F - 51.8 °F 26% 30.01 in - NE 8.1 mph - N/A   Clear
3:00 PM 93.2 °F 91.3 °F 55.4 °F 28% 29.98 in - ESE 3.5 mph - N/A   Clear
4:00 PM 93.2 °F 90.8 °F 53.6 °F 26% 29.95 in - Variable 2.3 mph - N/A   Clear
5:00 PM 93.2 °F 91.3 °F 55.4 °F 28% 29.95 in - West 5.8 mph - N/A   Clear
6:00 PM 91.4 °F 89.1 °F 53.6 °F 28% 29.95 in - NNW 3.5 mph - N/A   Clear
7:00 PM 86.0 °F 84.9 °F 57.2 °F 37% 29.98 in - SSW 4.6 mph - N/A   Clear
8:00 PM 80 °F - 53 °F 29%  in 6 mi SSE 2.3 mph - -  
9:00 PM 77.0 °F - 53.6 °F 44% 30.01 in - SSE 5.8 mph - N/A   Clear
10:00 PM 77.0 °F - 53.6 °F 44% 30.04 in - SE 8.1 mph - N/A   Clear
11:00 PM 77.0 °F - 48.2 °F 36% 30.04 in - ESE 9.2 mph - N/A   Clear